Flag for U.S.A. Weather past 2 weeks in Tucson, Arizona, U.S.A.

Now
58 °F

Clear.


Feels Like: 58 °F
Forecast: 61 / 86 °F
Wind: 6 mph from Southeast

Location: Davis-Monthan Air Force Base

Current Time: Sep 30, 2014 at 6:51:18 AM

Latest Report: Sep 30, 2014 at 5:58 AM


Visibility: 10 mi

Pressure: 29.83 "Hg

Humidity: 59%

Dew point: 44 °F

Location of TucsonLocation

Historic Weather in Tucson — Graph

°F

Tucson temperature yesterday

Maximum temperature yesterday: 87 °F (at 2:58 PM)
Minimum temperature yesterday: 64 °F (at 11:58 PM)
Average temperature yesterday: 75 °F

Past Weeks' High & Low Weather Summary

 TemperatureHumidityPressure
High98 °F (Sep 24, 2:58 PM)100% (Sep 18, 7:58 AM)30.03 "Hg (Sep 18, 7:58 AM)
Low58 °F (Sep 30, 4:58 AM)17% (Sep 25, 3:58 PM)29.66 "Hg (Sep 27, 3:58 PM)
Average80 °F57%29.82 "Hg
* Reported Sep 15 4:58 AM — Sep 30 4:58 AM, Tucson, Weather by CustomWeather, © 2014

Note: Actual official high and low records may vary slightly from our data, if they occured in-between our weather recording intervals... More about our weather records

Advertising

Tucson weather history for previous 24 hours

 ConditionsComfort  
Time TempWeatherWind HumidityBarometerVisibility
4:58 AM
Sep 30
58 °FClear.7 mph59%29.81 "Hg10 mi
3:58 AM60 °FClear.6 mph55%29.82 "Hg10 mi
2:58 AM61 °FClear.8 mph53%29.82 "Hg10 mi
1:58 AM62 °FClear.7 mph53%29.83 "Hg10 mi
12:58 AM63 °FClear.6 mph50%29.82 "Hg10 mi
11:58 PM
Sep 29
64 °FClear.5 mph47%29.82 "Hg10 mi
10:58 PM67 °FClear.6 mph33%29.82 "Hg10 mi
9:58 PM69 °FClear.6 mph33%29.82 "Hg10 mi
8:55 PM73 °FClear.6 mph27%29.78 "Hg10 mi
7:58 PM76 °FClear.7 mph23%29.80 "Hg10 mi
6:58 PM79 °FClear.7 mph21%29.77 "Hg10 mi
5:58 PM83 °FSunny.12 mph21%29.75 "Hg10 mi
4:58 PM85 °FSunny.10 mph20%29.75 "Hg10 mi
3:58 PM87 °FSunny.13 mph23%29.74 "Hg10 mi
2:58 PM87 °FSunny.8 mph27%29.75 "Hg10 mi
1:58 PM86 °FSunny.7 mph29%29.75 "Hg10 mi
12:58 PM83 °FSunny.7 mph37%29.79 "Hg10 mi
11:58 AM82 °FSunny.12 mph42%29.82 "Hg10 mi
10:58 AM80 °FPassing clouds.9 mph49%29.82 "Hg10 mi
9:58 AM79 °FSunny.7 mph55%29.82 "Hg10 mi
8:58 AM76 °FSunny.2 mph63%29.85 "Hg10 mi
7:58 AM73 °FSunny.5 mph68%29.83 "Hg10 mi
6:58 AM68 °FSunny.5 mph78%29.82 "Hg10 mi
Weather by CustomWeather, © 2014

See weather overviewHow to use our weather pages